Date String (YYYY-MM-DD hh:mm:ss) UTC,Instrument flags,Ambient pressure (hPa),Sample flow (lpm),Bypass flow (lpm),Sample temperature (°C),Ambient temperature (°C),ASC tube jacket temperature (°C),LED temperature (°C),Box temperature (°C),Sample RH (%),Span deviation,Mass concentration (μg/m³),Mass concentration (μg/m³),Mass concentration (μg/m³)
DateTimeUTC,F1_M11,P_M11,Q1_M11,Q2_M11,T1_M11,T2_M11,T3_M11,T4_M11,T5_M11,U1_M11,ZSPAN_M11,X0_M11,X2_M11,X1_M11
2022-05-03 10:00:00,,0822.5,4.99,0.00,23.3,22.6,00.0,32.3,25.1,21.8,0000.0,0007.19,0006.15,0006.02
2022-05-03 10:01:00,,0822.6,5.01,0.00,23.3,22.6,00.0,32.3,25.1,21.8,0000.0,0007.19,0006.17,0006.05
2022-05-03 10:02:00,,0822.5,4.99,0.00,23.3,22.6,00.0,32.3,25.0,21.8,0000.0,0007.17,0006.21,0006.10
2022-05-03 10:03:00,,0822.5,4.99,0.00,23.3,22.6,00.0,32.3,25.1,21.8,0000.0,0007.27,0006.26,0006.14
2022-05-03 10:04:00,,0822.5,5.00,0.00,23.3,22.6,00.0,32.3,25.1,21.9,0000.0,0007.30,0006.30,0006.18
2022-05-03 10:05:00,,0822.5,5.00,0.00,23.3,22.6,00.0,32.3,25.1,21.8,0000.0,0007.27,0006.30,0006.19
2022-05-03 10:06:00,,0822.5,5.01,0.00,23.3,22.5,00.0,32.3,25.0,21.8,0000.0,0007.19,0006.30,0006.19
2022-05-03 10:07:00,,0822.6,5.00,0.00,23.3,22.5,00.0,32.3,25.0,21.8,0000.0,0007.20,0006.32,0006.22
2022-05-03 10:08:00,,0822.6,4.99,0.00,23.3,22.5,00.0,32.3,25.0,21.7,0000.0,0007.21,0006.34,0006.23
2022-05-03 10:09:00,,0822.5,5.01,0.00,23.3,22.5,00.0,32.3,25.0,21.6,0000.0,0007.22,0006.34,0006.24
2022-05-03 10:10:00,,0822.5,5.00,0.00,23.2,22.5,00.0,32.3,25.0,21.6,0000.0,0007.05,0006.33,0006.26
2022-05-03 10:11:00,,0822.5,4.99,0.00,23.3,22.5,00.0,32.3,25.0,21.6,0000.0,0007.03,0006.34,0006.27
2022-05-03 10:12:00,,0822.5,5.00,0.00,23.3,22.5,00.0,32.3,25.0,21.5,0000.0,0007.06,0006.36,0006.29
2022-05-03 10:13:00,,0822.5,5.01,0.00,23.3,22.5,00.0,32.3,25.0,21.5,0000.0,0007.08,0006.40,0006.33
2022-05-03 10:14:00,,0822.6,5.00,0.00,23.3,22.5,00.0,32.3,25.0,21.5,0000.0,0007.12,0006.42,0006.36
2022-05-03 10:15:00,,0822.6,4.99,0.00,23.3,22.5,00.0,32.3,25.0,21.5,0000.0,0007.18,0006.45,0006.40
2022-05-03 10:16:00,,0822.5,5.02,0.00,23.3,22.5,00.0,32.2,25.0,21.5,0000.0,0007.36,0006.52,0006.46
2022-05-03 10:17:00,,0822.5,4.99,0.00,23.3,22.5,00.0,32.2,25.0,21.5,0000.0,0007.44,0006.58,0006.52
2022-05-03 10:18:00,,0822.5,4.99,0.00,23.3,22.5,00.0,32.2,25.0,21.5,0000.0,0007.50,0006.64,0006.58
2022-05-03 10:19:00,,0822.5,5.02,0.00,23.3,22.5,00.0,32.2,25.0,21.5,0000.0,0007.55,0006.69,0006.64
2022-05-03 10:20:00,,0822.6,5.00,0.00,23.3,22.5,00.0,32.2,25.0,21.5,0000.0,0007.54,0006.73,0006.68
2022-05-03 10:21:00,,0822.5,4.99,0.00,23.3,22.5,00.0,32.2,25.0,21.5,0000.0,0007.53,0006.78,0006.72
2022-05-03 10:22:00,,0822.5,5.01,0.00,23.3,22.5,00.0,32.2,25.0,21.5,0000.0,0007.58,0006.81,0006.74
2022-05-03 10:23:00,,0822.5,5.02,0.00,23.3,22.5,00.0,32.2,25.0,21.4,0000.0,0007.59,0006.82,0006.76
2022-05-03 10:24:00,,0822.5,5.00,0.00,23.3,22.5,00.0,32.2,25.1,21.5,0000.0,0007.60,0006.83,0006.78
2022-05-03 10:25:00,,0822.5,4.99,0.00,23.3,22.5,00.0,32.2,25.1,21.5,0000.0,0007.60,0006.84,0006.79
2022-05-03 10:26:00,,0822.5,5.01,0.00,23.3,22.5,00.0,32.2,25.1,21.5,0000.0,0007.63,0006.87,0006.82
2022-05-03 10:27:00,,0822.5,4.99,0.00,23.3,22.5,00.0,32.2,25.1,21.5,0000.0,0007.59,0006.89,0006.84
2022-05-03 10:28:00,,0822.5,4.99,0.00,23.3,22.5,00.0,32.2,25.1,21.5,0000.0,0007.63,0006.92,0006.87
2022-05-03 10:29:00,,0822.6,4.99,0.00,23.3,22.5,00.0,32.2,25.1,21.5,0000.0,0007.65,0006.94,0006.89
2022-05-03 10:30:00,,0822.5,5.02,0.00,23.3,22.5,00.0,32.2,25.1,21.5,0000.0,0007.68,0006.96,0006.90
2022-05-03 10:31:00,,0822.5,5.00,0.00,23.3,22.5,00.0,32.2,25.1,21.5,0000.0,0008.20,0006.98,0006.91
2022-05-03 10:32:00,,0822.5,5.00,0.00,23.3,22.5,00.0,32.2,25.1,21.5,0000.0,0008.41,0006.99,0006.92
2022-05-03 10:33:00,,0822.5,5.00,0.00,23.3,22.5,00.0,32.2,25.1,21.5,0000.0,0008.43,0007.02,0006.94
2022-05-03 10:34:00,,0822.5,5.01,0.00,23.3,22.5,00.0,32.2,25.1,21.5,0000.0,0008.45,0007.05,0006.97
2022-05-03 10:35:00,,0822.5,4.99,0.00,23.3,22.5,00.0,32.2,25.1,21.5,0000.0,0008.43,0007.04,0006.96
2022-05-03 10:36:00,,0822.5,4.99,0.00,23.3,22.5,00.0,32.2,25.0,21.5,0000.0,0008.45,0007.05,0006.97
2022-05-03 10:37:00,,0822.5,5.02,0.00,23.3,22.5,00.0,32.2,25.0,21.6,0000.0,0008.48,0007.05,0006.97
2022-05-03 10:38:00,,0822.5,5.00,0.00,23.3,22.5,00.0,32.2,25.1,21.5,0000.0,0008.47,0007.04,0006.96
2022-05-03 10:39:00,,0822.4,5.00,0.00,23.3,22.5,00.0,32.2,25.1,21.5,0000.0,0008.45,0007.02,0006.94
2022-05-03 10:40:00,,0822.4,4.99,0.00,23.3,22.5,00.0,32.2,25.1,21.5,0000.0,0008.44,0007.00,0006.92
2022-05-03 10:41:00,,0822.4,5.01,0.00,23.3,22.5,00.0,32.2,25.1,21.5,0000.0,0008.44,0006.99,0006.90
2022-05-03 10:42:00,,0822.4,4.99,0.00,23.3,22.5,00.0,32.2,25.1,21.5,0000.0,0008.06,0006.98,0006.91
2022-05-03 10:43:00,,0822.4,4.99,0.00,23.3,22.5,00.0,32.2,25.1,21.5,0000.0,0007.75,0006.97,0006.91
2022-05-03 10:44:00,,0822.5,5.01,0.00,23.3,22.5,00.0,32.2,25.1,21.5,0000.0,0007.72,0006.96,0006.91
2022-05-03 10:45:00,,0822.4,5.00,0.00,23.3,22.5,00.0,32.2,25.1,21.5,0000.0,0007.75,0006.98,0006.93
2022-05-03 10:46:00,,0822.4,5.01,0.00,23.3,22.6,00.0,32.2,25.2,21.5,0000.0,0007.81,0007.03,0006.97
2022-05-03 10:47:00,,0822.3,4.99,0.00,23.3,22.6,00.0,32.2,25.1,21.5,0000.0,0007.90,0007.08,0007.00
2022-05-03 10:48:00,,0822.4,5.00,0.00,23.3,22.5,00.0,32.3,25.2,21.5,0000.0,0007.90,0007.10,0007.03
2022-05-03 10:49:00,,0822.3,5.01,0.00,23.4,22.5,00.0,32.3,25.2,21.5,0000.0,0007.97,0007.15,0007.07
2022-05-03 10:50:00,,0822.3,5.00,0.00,23.4,22.5,00.0,32.3,25.2,21.5,0000.0,0008.04,0007.20,0007.12
2022-05-03 10:51:00,,0822.4,4.99,0.00,23.4,22.6,00.0,32.3,25.1,21.6,0000.0,0008.18,0007.30,0007.19
2022-05-03 10:52:00,,0822.5,5.02,0.00,23.4,22.6,00.0,32.3,25.2,21.7,0000.0,0008.25,0007.36,0007.25
2022-05-03 10:53:00,,0822.5,4.99,0.00,23.4,22.6,00.0,32.3,25.2,23.5,0000.0,0008.29,0007.39,0007.27
2022-05-03 10:54:00,,0822.5,5.00,0.00,23.4,22.5,00.0,32.3,25.2,23.8,0000.0,0008.34,0007.43,0007.30
2022-05-03 10:55:00,,0822.4,5.01,0.00,23.4,22.6,00.0,32.3,25.1,22.4,0000.0,0008.36,0007.44,0007.32
2022-05-03 10:56:00,,0822.4,4.99,0.00,23.4,22.6,00.0,32.3,25.2,22.0,0000.1,0008.36,0007.44,0007.32
2022-05-03 10:57:00,,0822.3,5.01,0.00,23.4,22.6,00.0,32.3,25.2,21.8,0000.0,0008.41,0007.44,0007.31
2022-05-03 10:58:00,,0822.3,4.99,0.00,23.4,22.6,00.0,32.3,25.1,21.8,0000.0,0008.43,0007.42,0007.31
2022-05-03 10:59:00,,0822.3,4.99,0.00,23.4,22.6,00.0,32.3,25.1,21.7,0000.3,0008.47,0007.44,0007.33
